Home   Weather   Resolute Bay   Past weeks
Flag for Canada

Past Weather in Resolute Bay, Nunavut, Canada — Yesterday and Last 2 Weeks

Now
-35 °F

Snow flurries. Sunny.


Feels Like: -59 °F
Forecast: -21 / -30 °F
Wind: 10 mph from West

Location: Resolute

Current Time: Feb 18, 2019 at 10:39:23 am

Latest Report: Feb 18, 2019 at 10:00 am


Visibility: 12 mi

Pressure: 30.06 "Hg

Humidity: 73%

Dew Point: -40 °F

Location of Resolute BayLocation

Past Weather in Resolute Bay — Graph

°F

Resolute Bay Temperature Yesterday

Maximum temperature yesterday: -24 °F (at 4:00 am)
Minimum temperature yesterday: -35 °F (at 6:00 pm)
Average temperature yesterday: -29 °F

High & Low Weather Summary for the Past Weeks

 TemperatureHumidityPressure
High-9 °F (Feb 11, 11:00 pm)84% (Feb 12, 12:00 am)30.58 "Hg (Feb 12, 12:00 am)
Low-35 °F (Feb 17, 6:00 pm)60% (Feb 17, 12:00 pm)29.74 "Hg (Feb 13, 8:00 pm)
Average-22 °F71%30.20 "Hg
* Reported Feb 3 9:00 am — Feb 18 9:00 am, Resolute Bay. Weather by CustomWeather, © 2019

Note: Actual official high and low records may vary slightly from our data, if they occured in-between our weather recording intervals... More about our weather records

Advertising

Resolute Bay Weather History for the Previous 24 Hours

Scroll right to see more
 ConditionsComfort  
Time TempWeatherWind HumidityBarometerVisibility
9:00 am
Mon, Feb 18
-33 °FSnow flurries. Clear.10 mph74%30.09 "Hg12 mi
8:00 am-33 °FSnow flurries. Passing clouds.10 mph66%30.11 "Hg15 mi
7:00 am-31 °FSnow flurries. Passing clouds.13 mph67%30.12 "Hg15 mi
6:00 am-33 °FSnow flurries. Passing clouds.7 mph66%30.15 "Hg15 mi
5:00 am-31 °FSnow flurries. Passing clouds.6 mph67%30.16 "Hg15 mi
4:00 am-31 °FSnow flurries. Passing clouds.8 mph67%30.19 "Hg15 mi
3:00 am-33 °FSnow flurries. Clear.6 mph66%30.22 "Hg15 mi
2:00 am-20 °FSnow flurries. Clear.10 mph75%30.23 "Hg15 mi
1:00 am-26 °FSnow flurries. Clear.10 mph75%30.25 "Hg15 mi
12:00 am-31 °FSnow flurries. Clear.10 mph67%30.28 "Hg15 mi
11:00 pm
Sun, Feb 17
-33 °FSnow flurries. Clear.8 mph74%30.30 "Hg15 mi
10:00 pm-29 °FSnow flurries. Clear.3 mph67%30.32 "Hg15 mi
9:00 pm-33 °FSnow flurries. Clear.2 mph66%30.34 "Hg15 mi
8:00 pm-31 °FSnow flurries. Clear.2 mph67%30.37 "Hg15 mi
7:00 pm-33 °FSnow flurries. Clear.8 mph66%30.39 "Hg15 mi
6:00 pm-35 °FSnow flurries. Clear.8 mph66%30.42 "Hg15 mi
5:00 pm-33 °FSnow flurries. Clear.14 mph66%30.43 "Hg15 mi
4:00 pm-33 °FSnow flurries. Clear.9 mph66%30.45 "Hg15 mi
3:00 pm-31 °FSnow flurries. Sunny.12 mph67%30.45 "Hg15 mi
2:00 pm-33 °FSnow flurries. Sunny.9 mph66%30.47 "Hg15 mi
1:00 pm-29 °FSnow flurries. Sunny.7 mph74%30.49 "Hg15 mi
12:00 pm-29 °FSnow flurries. Sunny.9 mph60%30.51 "Hg15 mi
11:00 am-24 °FSnow flurries. Sunny.13 mph61%30.52 "Hg15 mi
10:00 am-27 °FSnow flurries. Sunny.15 mph67%30.53 "Hg15 mi
Weather by CustomWeather, © 2019

See weather overview